Location: Newark
(33.7763°N, 130.5393°E)
Time: 21:08:56
(UTC+00:00)

Envisat - Visible Passes

Search period start: 24 August 2019 00:00
Search period end: 03 September 2019 00:00
Orbit: 764 x 766 km, 98.1° (Epoch: 24 August)

Date Brightness Start Highest point End Pass type
(mag) Time Alt. Az. Time Alt. Az. Time Alt. Az.
24 Aug 6.1 11:05:55 10° WSW 11:07:29 11° W 11:09:03 10° WNW visible
25 Aug 5.2 10:26:07 10° SSW 10:30:26 28° W 10:34:47 10° NW visible
27 Aug 5.9 10:53:14 10° SW 10:56:08 15° W 10:59:01 10° WNW visible
28 Aug 4.7 10:14:30 10° SSW 10:19:08 36° W 10:23:49 10° NNW visible
30 Aug 5.7 10:41:09 10° SW 10:44:48 20° W 10:48:27 10° NW visible
31 Aug 4.2 10:02:59 10° S 10:07:51 47° W 10:12:45 10° NNW visible
02 Sep 5.4 10:29:18 10° SSW 10:33:29 26° W 10:37:40 10° NW visible
